11:53
Airports
History
Links
Donate
Help keep this website running!
PayPal
Bitcoin
This page is community maintained. The information is intended for PC simulator navigation or reference.
Always use approved charts for navigation.
CPS2
Elmhirst Resort
Elmhirst Resort (CPS2)
Keene, Ontario, Canada
(C)
Lat/Lng:44° 15' 3.35" N / 78° 7' 0.96" W
44.250931 / -78.116933
Elevation:650'ft / 198mMSL
ID / ICAO:CPS2
Runways:1
Longest:06-24
Grass 853m / 2,799ft
Controlled:Yes
Nearby Weather11:44 GMT 2018-01-23
Nearby weather at CYPQ, Peterborough located 12.3 nautical miles from CPS2
Altimeter: 29.47
Visibility: 1.3 statute miles
Wind: 0 knots (from 000°)
Temp: 0°c / 32°f
Humidity: %

METAR: CYPQ 231144Z AUTO 00000KT 1 1/4SM BR OVC005 00/00 A2947 RMK PRESFR SLP990

(Powered by phpweather)
Airport Radio Frequencies
Elmhirst Unicom: 122.8
Nearby VORs <50NM
Nearby NDBs
Runway 06 / 24
Dimensions:853 x 14.9m 2799' x 49'ft
Surface:Grass
Runway 06 [A]Runway 24 [B]
Heading:048°TH 228°TH
Lat:
Lng:
44° 14' 54.1"N
78° 7' 15.3"W
44° 15' 12.6"N
78° 6' 46.62"W
User Notes and Comments
44° 15' 3.35" N / 78° 7' 0.96" W
Distance To
Airport ID:
Nearby Airports
(U) Peterborough 12.3 NM
CYPQ ( WX ) W 263°
(R) Trenton 30.6 NM
CYTR ( WX ) ESE 107°
(U) Lindsay 33.9 NM
NF4 WNW 283°
(C) Mountain View 40.6 NM
PZ3 ESE 107°
(C) Oshawa 44.8 NM
CYOO WSW 239°
(U) MOHAWK 50.1 NM
CPU6 E 95°
4 Baldwin 60.4 NM
PB9 W 271°
VFR Chart
Flight Planning at SkyVector.com